Regional Weather Roundup
Issued by NWS Albany, NY

Home | Current Version | Previous Version | Graphics & Text | Print | Product List | Glossary Off
Versions: 1 2 3 4 5 6 7 8 9 10 11 12 13 14 15 16 17 18 19 20 21 22 23 24 25 26 27 28 29 30 31 32 33 34 35 36 37 38 39 40 41 42 43 44 45 46 47 48 49 50

000
ASUS41 KALY 270310
RWRALY

NEW YORK STATE HOURLY WEATHER ROUNDUP
NATIONAL WEATHER SERVICE ALBANY NY
1100 PM EDT TUE MAY 26 2015

NOTE: "FAIR" INDICATES FEW OR NO CLOUDS BELOW 12,000 FEET WITH NO
SIGNIFICANT WEATHER AND/OR NO OBSTRUCTIONS TO VISIBILITY.

NYZ032-033-038>043-046>054-057>066-NYZ062>081-270400-
EAST


CITY           SKY/WX    TMP DP  RH WIND       PRES   REMARKS
ALBANY         MOCLDY    77  65  66 S7        30.10R
GLENS FALLS    CLEAR     71  63  75 CALM      30.08R
POUGHKEEPSIE   CLEAR     72  63  73 SE6       30.12R
NEWBURGH       PTCLDY    68  68 100 CALM      30.14R
MONTGOMERY     FOG       68  67  96 CALM      30.13R VSB 1/4
WHITE PLAINS   CLEAR     67  60  78 S7        30.16R
ISLIP          PTCLDY    66  60  81 SW20G29   30.18S
NEW YORK CITY  MOCLDY    75  60  59 SW14      30.16R
CENTRAL PARK   PTCLDY    75  60  59 W8        30.19R
$$

NYZ005>009-017-018-044>046-055-056-270400-
CENTRAL


CITY           SKY/WX    TMP DP  RH WIND       PRES   REMARKS
FULTON         CLEAR     74  65  73 S7        30.04R
SYRACUSE       MOCLDY    76  64  66 S8        30.04R
ROME           CLOUDY    73  65  75 CALM      30.08R
ELMIRA         CLEAR     68  64  87 CALM      30.08S
BINGHAMTON     PTCLDY    69  66  90 S6        30.13S
MONTICELLO     CLEAR     66  64  94 S3        30.18S
$$

NYZ026>034-041>043-270400-
NORTH


CITY           SKY/WX    TMP DP  RH WIND       PRES   REMARKS
WATERTOWN      PTCLDY    68  66  93 SE3       30.01S
FORT DRUM      NOT AVBL
MASSENA        CLEAR     69  63  81 CALM      30.00S
SARANAC LAKE   MOCLDY    62  59  90 CALM      30.08F
PLATTSBURGH    MOCLDY    69  59  70 CALM      30.01R
$$

NYZ001>004-010>016-019>021-270400-
WEST


CITY           SKY/WX    TMP DP  RH WIND       PRES   REMARKS
NIAGARA FALLS  MOCLDY    73  61  65 S10       29.98S
BUFFALO        PTCLDY    74  61  63 S8        30.00S
DUNKIRK        MOCLDY    75  63  66 S16G23    30.00S
JAMESTOWN      PTCLDY    68  61  77 S8        30.07F
WELLSVILLE     CLEAR     69  61  75 S9        30.12F
ROCHESTER      PTCLDY    72  63  73 S7        30.02S
PENN YAN       CLEAR     73  61  65 SW7       30.06F
$$

             KEY
       WCI = WIND CHILL INDEX
       VSB = VISIBILITY
       HX  = HEAT INDEX
$$



USA.gov is the U.S. government's official web portal to all federal, state and local government web resources and services.